Ismail Atal

Olheiro - CR Belouizdad
4 Abr 2027
Domingo
Processo

Personalidade

Adaptabilidade (2) Ambição (6) Controvérsia (13) Lealdade (1) Pressão (3) Profissionalismo (5) Espírito Esportivo (14) Temperamento (12)

Perfil

Estilo de Treinamento Democrático
Licença Continental C
Determinação 10
Gestão de Pessoas 10
Motivação 11
Disciplina 10
Satisfação no Trabalho
95%
Fadiga
0%
Função Olheiro
Salário 70.7K p/s
Contrato 14.03.2030

Desempenho

Comportamento Bom
Eficácia do Treinamento
41%
Desenvolvimento do Jogador
45%
Prevenção de Lesões
20%
Implementação Tática
30%

Eventos Recentes

Participou de uma reunião de recrutamento agora
Avaliou um jogador agora
Participou de uma reunião de recrutamento 7d atrás
Avaliou um jogador 7d atrás
Avaliou um jogador 7d atrás
Avaliou um jogador 7d atrás
Avaliou um jogador 14d atrás
Avaliou um jogador 14d atrás

Monitorando agora

143
Jogador Clube Status Habilidade Confiança Observado Última observação Último voto
Bernard Mensah Wa All Stars Ativo 118 / 112 40% 1 02.04.2027 -
Bradley Mothiba SuperSport United Ativo 101 / 102 40% 1 02.04.2027 -
Mohau Nkota Al-Ettifaq Ativo 137 / 119 40% 5 01.04.2027 -
Ryan Stirk Chesterfield Ativo 90 / 108 40% 1 01.04.2027 -
Mateo Fernández Angusht Ativo 86 / 86 40% 4 30.03.2027 -
Callum Stead Barnet Ativo 110 / 100 40% 2 30.03.2027 -
Liam Bennett Cambridge United Ativo 116 / 95 40% 1 27.03.2027 -
Simon Ramabu Polokwane City Ativo 100 / 106 40% 1 27.03.2027 -
Mark Helm Fleetwood Town Ativo 118 / 97 40% 1 26.03.2027 -
Kirill Danilin Fakel Ativo 91 / 96 40% 1 26.03.2027 -
Freddie Draper Lincoln City Ativo 118 / 110 40% 2 23.03.2027 -
Mykola Haiduchyk Polissia Ativo 107 / 121 40% 1 23.03.2027 -
Dilan Markanday Chesterfield Ativo 119 / 94 40% 1 21.03.2027 -
Kyreece Lisbie Colchester United Ativo 126 / 111 40% 1 21.03.2027 -
Ali Saleh Al Wasl Ativo 122 / 108 40% 3 19.03.2027 -
Calum Kavanagh Oldham Athletic Ativo 110 / 102 40% 1 19.03.2027 -
Luka Reischl ADO Den Haag Ativo 118 / 112 40% 1 19.03.2027 -
Simone Rabbi Ravenna Ativo 102 / 114 40% 1 19.03.2027 -
Zech Medley Fleetwood Town Ativo 113 / 95 40% 1 18.03.2027 -
Lebogang Erasmus Platinum Stars Ativo 109 / 112 40% 1 18.03.2027 -
Vladimir Nikolov Slavia Sofia Ativo 117 / 115 40% 2 17.03.2027 -
Amos Inusah Wa All Stars Ativo 104 / 108 40% 1 17.03.2027 -
Migran Ageyan Ufa Ativo 99 / 103 40% 1 16.03.2027 -
Alessio Nepi Perugia Ativo 108 / 101 40% 1 15.03.2027 -
Danyil Alefirenko Chornomorets Ativo 108 / 99 40% 1 15.03.2027 -
Connor Barrett Walsall Ativo 87 / 106 40% 1 13.03.2027 -
Matthew Smith Northampton Town Ativo 120 / 93 40% 1 13.03.2027 -
Kwadwo Obeng Junior Heart of Lions Ativo 93 / 86 40% 2 11.03.2027 -
Meshari Al-Nemer Al-Diriyah Ativo 109 / 101 40% 1 11.03.2027 -
Felipe Fernández Vorskla Ativo 104 / 98 40% 1 09.03.2027 -
Slobodan Tedić Akron Ativo 95 / 114 40% 1 09.03.2027 -
Yaroslav Karabin Karpaty Ativo 119 / 111 40% 1 07.03.2027 -
Fabio Abiuso Carrarese Ativo 128 / 111 40% 1 07.03.2027 -
Solomon Tweh Al-Ra'ed Ativo 121 / 104 40% 3 03.03.2027 -
Younes El Bahraoui Al-Taawoun Ativo 111 / 120 40% 2 03.03.2027 -
Brian Figueroa Morelia Ativo 117 / 111 40% 1 02.03.2027 -
Jack Currie Oxford United Ativo 138 / 123 40% 2 01.03.2027 -
Udoka Godwin-Malife Burton Albion Ativo 105 / 102 40% 1 01.03.2027 -
Solly Khunyedi Bloemfontein Celtic Ativo 91 / 102 40% 1 01.03.2027 -
Jonathan Sulemana BA All Stars Ativo 101 / 102 40% 2 26.02.2027 -
Dillon Hoogewerf ES Mostaganem Ativo 88 / 106 40% 1 26.02.2027 -
Leandro Godoy CSKA Sofia Ativo 122 / 122 40% 2 25.02.2027 -
Ekain Orobengoa Real Sociedad Ativo 97 / 99 40% 1 25.02.2027 -
Hlompho Modiba Black Aces Ativo 102 / 93 40% 1 23.02.2027 -
Louis Appéré Cambridge United Ativo 99 / 94 40% 1 23.02.2027 -
Isaac Tshibangu Emirates Club Ativo 100 / 106 40% 6 22.02.2027 -
Dramane Kamagaté USM Alger Ativo 109 / 112 40% 2 22.02.2027 -
Sunday Williams Ghazl El Mahalla Ativo 77 / 78 40% 2 20.02.2027 -
Abdelrahman Magdy Aswan Ativo 80 / 79 40% 1 20.02.2027 -
Saeed Al Naqbi Al Ahli Ativo 115 / 115 40% 3 17.02.2027 -
Brooklyn Poggenpoel Maritzburg United Ativo 116 / 104 40% 2 17.02.2027 -
Nour El Islam Fettouhi JS Saoura Ativo 105 / 91 40% 1 16.02.2027 -
Ahmed Bahusayn Al-Taawoun Ativo 92 / 98 40% 1 16.02.2027 -
Wandile Duba Bidvest Wits Ativo 103 / 101 40% 3 15.02.2027 -
Josh Woods Accrington Stanley Ativo 102 / 94 40% 2 15.02.2027 -
Dominik Yankov Arda Ativo 98 / 107 40% 1 15.02.2027 -
Wadhah Zaidi Hajer Ativo 109 / 91 40% 2 10.02.2027 -
Ibrahim Cissoko Zwolle Ativo 113 / 121 40% 1 10.02.2027 -
Denis Rubanov Dinamo Stavropol Ativo 76 / 79 40% 1 05.02.2027 -
Miguel Falé Pacos de Ferreira Ativo 99 / 105 40% 1 05.02.2027 -
Teboho Tau Ajax Cape Town Ativo 106 / 108 40% 3 04.02.2027 -
Haman Mandjan Al-Ra'ed Ativo 106 / 100 40% 1 04.02.2027 -
Kane Drummond Oldham Athletic Ativo 109 / 94 40% 3 03.02.2027 -
Dmitry Tsypchenko Torpedo Moscow Ativo 102 / 107 40% 1 03.02.2027 -
Abdulmalik Al-Jaber Al-Nassr Ativo 94 / 97 40% 3 27.01.2027 -
Daniel Phillips Stevenage Ativo 120 / 104 40% 1 27.01.2027 -
Oussama Darfalou Olympique Akbou Ativo 98 / 102 55% 1 25.01.2027 -
Daniel Kyerewaa Reading Ativo 119 / 124 40% 2 23.01.2027 -
Siyanda Ndlovu Hearts of Oak Ativo 127 / 111 40% 1 23.01.2027 -
Csanád Vilmos Dénes Debrecen Ativo 105 / 117 40% 1 19.01.2027 -
Midana Cassamá Portimonense Ativo 95 / 99 40% 1 19.01.2027 -
Saeed Baattia Al-Fateh Ativo 103 / 94 40% 1 12.01.2027 -
Ahmed Al-Ghamdi Al-Ittihad Ativo 101 / 103 40% 1 12.01.2027 -
Velemseni Ndwandwe Golden Arrows Ativo 98 / 103 40% 2 29.12.2026 -
Abdulrahman Al-Harthi Al-Ta'ee Ativo 97 / 97 40% 1 29.12.2026 -
Omar Al-Ruwaili Najran Ativo 94 / 91 40% 1 28.12.2026 -
José Bica Leixões Ativo 86 / 99 40% 1 27.12.2026 -
Valentín Vada Damac Ativo 126 / 122 40% 1 26.12.2026 -
Sultan Mandash Al-Hilal Ativo 105 / 113 40% 1 23.12.2026 -
Ahmed Al-Juwaid Al-Orobah Ativo 88 / 89 40% 1 22.12.2026 -
Jean Charles Ahoua Al-Faisaly Ativo 112 / 116 40% 1 20.12.2026 -
Thabo Nodada Maritzburg United Ativo 112 / 110 40% 1 20.12.2026 -
Saeed Al-Hamsal Al-Khaleej Ativo 92 / 101 40% 2 19.12.2026 -
Abdullah Al-Yousif Al-Ra'ed Ativo 93 / 103 40% 2 19.12.2026 -
Moteb Al-Harbi Al-Hilal Ativo 127 / 125 40% 1 17.12.2026 -
Goodman Mosele Chippa United Ativo 112 / 103 40% 1 17.12.2026 -
José Martínes CSKA 1948 Ativo 95 / 100 40% 1 16.12.2026 -
Ante Roguljić Diosgyor Ativo 102 / 121 40% 1 15.12.2026 -
Juanjo Narváez Al-Ra'ed Ativo 119 / 116 40% 1 14.12.2026 -
Erick Ngcobo Black Aces Ativo 109 / 110 40% 1 13.12.2026 -
Ousmane Camara Sharjah Ativo 113 / 118 40% 4 11.12.2026 -
Hamed Al-Ghamdi Al-Wehda Ativo 122 / 113 40% 1 10.12.2026 -
Bernardo Folha Al Wahda Ativo 105 / 111 40% 2 09.12.2026 -
Agustín Ramírez Inter Ativo 108 / 107 40% 1 09.12.2026 -
Thabang Matuludi Polokwane City Ativo 113 / 104 40% 1 08.12.2026 -
Brahima Diarra Al Wahda Ativo 125 / 109 40% 1 08.12.2026 -
Saviour Godwin Baniyas Ativo 142 / 117 40% 1 07.12.2026 -
Renato Júnior Al Wasl Ativo 133 / 118 40% 2 03.12.2026 -
Johnson Amuzu Berekum Chelsea Ativo 84 / 99 40% 1 03.12.2026 -
Firas Ben Larbi Sharjah Rejeitado 114 / 121 40% 1 30.11.2026 Mais informações
Kaku Al Ain Ativo 122 / 114 40% 1 29.11.2026 -
Leandrinho Sharjah Ativo 108 / 111 40% 1 28.11.2026 -
Luther Zwane Platinum Stars Ativo 103 / 114 40% 1 26.11.2026 -
Mouhameth Diop Al Fujairah Ativo 87 / 87 40% 1 26.11.2026 -
Facundo Kruspzky Al Wahda Ativo 118 / 126 40% 2 25.11.2026 -
Morad Khodari Al-Wehda Ativo 96 / 84 40% 2 25.11.2026 -
Alfredo Garcia La Equidad Ativo 166 / 148 40% 1 19.11.2026 -
Jason Al-Fayha Ativo 118 / 126 40% 1 19.11.2026 -
Suhail Al-Noobi Baniyas Ativo 98 / 108 40% 1 17.11.2026 -
Alfa Semedo Al-Fayha Ativo 131 / 107 40% 1 17.11.2026 -
Faisal Al-Abdulwahed Al-Fateh Ativo 80 / 86 40% 2 15.11.2026 -
Trezeguet Al-Riyadh Ativo 142 / 135 40% 1 13.11.2026 -
Lebogang Zwane Black Aces Ativo 96 / 98 40% 1 13.11.2026 -
Isaac Success Al Shaab Ativo 118 / 117 40% 1 10.11.2026 -
Bruno Al Jazira Ativo 128 / 121 40% 3 07.11.2026 -
Houssemeddine Ghacha USM Alger Ativo 122 / 116 40% 1 07.11.2026 -
Mfundo Vilakazi Kaizer Chiefs Ativo 104 / 116 40% 1 06.11.2026 -
Mohamed Kanno Al-Hilal Ativo 129 / 134 40% 1 04.11.2026 -
Mohammad Javad Hosseinnejad Dinamo Makhachkala Ativo 104 / 105 40% 1 04.11.2026 -
Robin Gonzalez HNK Vukovar 1991 Ativo 113 / 122 40% 1 04.11.2026 -
Jordhy Thompson Orenburg Ativo 118 / 118 40% 1 03.11.2026 -
João Moreira Al Nasr Ativo 96 / 113 40% 1 03.11.2026 -
Nabil Alioui Damac Ativo 96 / 100 40% 1 31.10.2026 -
Jorge Padilla Cherno More Ativo 117 / 103 40% 1 30.10.2026 -
Shota Shekiladze Dila Ativo 110 / 122 40% 1 30.10.2026 -
Mohanad Ali Dibba Ativo 127 / 116 40% 1 28.10.2026 -
Youssef Hassan Al Shabab Ativo 123 / 121 40% 3 27.10.2026 -
Saleh Abu Al-Shamat Al-Ahli Ativo 132 / 108 40% 1 27.10.2026 -
Vyacheslav Grulev Nizhniy Novgorod Rejeitado 120 / 119 40% 1 25.10.2026 Mais informações
Hernán Luna NK Domzale Ativo 102 / 108 40% 1 23.10.2026 -
Albert Amoah Hajer Ativo 98 / 96 40% 1 20.10.2026 -
Radek Šiler Podbrezova Ativo 114 / 121 40% 1 19.10.2026 -
Celso Sidney Cherno More Ativo 90 / 101 40% 1 18.10.2026 -
Kevin Agudelo Al Nasr Ativo 130 / 127 40% 1 18.10.2026 -
Berna CSKA 1948 Ativo 126 / 120 40% 1 16.10.2026 -
Erik Al Ahli Ativo 119 / 107 40% 1 15.10.2026 -
Aiman Yahya Al-Nassr Ativo 110 / 113 40% 1 13.10.2026 -
Ibrahim Bayesh Al Dhafra Ativo 117 / 131 40% 1 13.10.2026 -
Mohammed Rabii Al Jazira Ativo 119 / 110 40% 1 11.10.2026 -
Abdoulaye Touré Al Nasr Ativo 109 / 101 40% 1 10.10.2026 -
Richard Akonnor Al Jazira Ativo 123 / 120 40% 1 07.10.2026 -
Zayed Sultan Al Nasr Ativo 97 / 118 40% 1 07.10.2026 -
Mohammad Ghorbani Al Wahda Ativo 91 / 111 40% 1 06.10.2026 -